Location: Poughquag
(41.6090°N, 73.6820°W)
Time: 04:54:06
(UTC-04:00)

SR - All Passes

Search period start: 29 September 2020 00:00
Search period end: 09 October 2020 00:00
Orbit: 583 x 873 km, 66.7° (Epoch: 28 September)

Date Brightness Start Highest point End Pass type
(mag) Time Alt. Az. Time Alt. Az. Time Alt. Az.
29 Sep - 08:50:18 10° SE 08:52:39 14° ESE 08:54:59 10° ENE daylight
29 Sep - 10:30:02 10° SW 10:34:12 51° NW 10:38:22 10° NNE daylight
29 Sep - 17:28:37 10° N 17:31:38 17° NE 17:34:46 10° E daylight
29 Sep - 19:09:22 10° NNW 19:14:07 76° WSW 19:19:17 10° SSE visible
30 Sep - 09:40:14 10° SSW 09:44:29 70° ESE 09:48:44 10° NE daylight
30 Sep - 11:24:40 10° WNW 11:27:00 14° NW 11:29:20 10° N daylight
30 Sep - 18:19:45 10° NNW 18:24:23 54° ENE 18:29:25 10° SE daylight
30 Sep - 20:02:42 10° WNW 20:06:06 19° WSW 20:09:42 10° SSW visible
01 Oct - 08:51:12 10° S 08:54:57 30° ESE 08:58:40 10° NE daylight
01 Oct - 10:33:18 10° WSW 10:36:55 26° NW 10:40:33 10° N daylight
01 Oct - 17:30:27 10° N 17:34:31 28° NE 17:38:51 10° ESE daylight
01 Oct - 19:12:08 10° NW 19:16:36 39° WSW 19:21:25 10° S visible
02 Oct - 08:03:29 10° SE 08:05:33 13° ESE 08:07:36 10° ENE daylight
02 Oct - 09:42:51 10° SW 09:47:02 55° WNW 09:51:15 10° NNE daylight
02 Oct - 16:41:34 10° N 16:44:28 16° NE 16:47:28 10° E daylight
02 Oct - 18:22:12 10° NNW 18:26:59 81° WSW 18:32:12 10° SSE daylight
03 Oct - 08:53:07 10° SSW 08:57:21 65° ESE 09:01:34 10° NE daylight
03 Oct - 10:37:18 10° W 10:39:49 15° NW 10:42:20 10° N daylight
03 Oct - 17:32:37 10° NNW 17:37:15 50° ENE 17:42:15 10° SE daylight
03 Oct - 19:15:24 10° WNW 19:19:00 21° WSW 19:22:48 10° SSW visible
04 Oct - 08:04:11 10° S 08:07:49 28° ESE 08:11:26 10° NE daylight
04 Oct - 09:46:04 10° WSW 09:49:45 28° NW 09:53:28 10° N daylight
04 Oct - 16:43:20 10° N 16:47:22 27° NE 16:51:38 10° ESE daylight
04 Oct - 18:24:57 10° NW 18:29:30 42° WSW 18:34:25 10° S daylight
05 Oct - 07:16:43 10° SE 07:18:26 12° ESE 07:20:10 10° E daylight
05 Oct - 08:55:41 10° SW 08:59:53 59° WNW 09:04:07 10° NNE daylight
05 Oct - 15:54:31 10° N 15:57:17 15° NE 16:00:09 10° E daylight
05 Oct - 17:35:03 10° NNW 17:39:52 86° WSW 17:45:06 10° SSE daylight
05 Oct - 19:20:40 10° W 19:21:17 10° WSW 19:21:54 10° WSW visible
06 Oct - 08:06:01 10° SSW 08:10:12 59° ESE 08:14:25 10° NE daylight
06 Oct - 09:49:57 10° W 09:52:37 16° NW 09:55:18 10° N daylight
06 Oct - 16:45:29 10° NNW 16:50:06 47° NE 16:55:06 10° SE daylight
06 Oct - 18:28:08 10° WNW 18:31:54 22° WSW 18:35:54 10° SSW daylight
07 Oct - 07:17:10 10° SSE 07:20:41 26° ESE 07:24:13 10° NE daylight
07 Oct - 08:58:49 10° WSW 09:02:34 30° NW 09:06:23 10° N daylight
07 Oct - 15:56:14 10° N 16:00:12 25° NE 16:04:25 10° ESE daylight
07 Oct - 17:37:45 10° NW 17:42:23 45° WSW 17:47:22 10° S daylight
08 Oct - 06:30:03 10° ESE 06:31:20 11° ESE 06:32:37 10° E visible
08 Oct - 08:08:30 10° SW 08:12:43 64° WNW 08:16:59 10° NNE daylight
08 Oct - 15:07:28 10° N 15:10:06 15° NE 15:12:50 10° ENE daylight
08 Oct - 16:47:53 10° NNW 16:52:44 88° ENE 16:58:00 10° SSE daylight
08 Oct - 18:32:40 10° W 18:34:11 11° WSW 18:35:44 10° WSW daylight
